GW4718 Weather Reports


time (UTC)temp
F
wind
direction
speed
knots
gust
knots
rain 1hr
in
rain 24hr
in
rain mn
in
humidity
%
barometer
mb
20260509004136 53 195 0.0 0.0 0.00 0.00 0.00 61 1014.5
20260509003634 55 180 0.0 0.9 0.00 0.00 0.00 58 1014.4
20260509003131 55 143 0.0 0.0 0.00 0.00 0.00 57 1014.5
20260509002629 55 105 0.0 0.0 0.00 0.00 0.00 54 1014.4
20260509002126 56 67 1.7 1.7 0.00 0.00 0.00 54 1014.5
20260509001624 56 282 0.0 0.0 0.00 0.00 0.00 53 1014.4
20260509001119 57 171 0.0 0.0 0.00 0.00 0.00 52 1014.4
20260509000618 58 138 0.0 0.0 0.00 0.00 0.00 51 1014.4
20260509000114 58 128 0.0 0.0 0.00 0.00 0.00 49 1014.3
20260508235611 59 303 0.0 1.7 0.00 0.00 0.00 42 1014.4
20260508235107 58 172 1.7 1.7 0.00 0.00 0.00 45 1014.2
20260508234605 59 207 0.9 1.7 0.00 0.00 0.00 46 1014.0
20260508234101 60 262 0.9 0.9 0.00 0.00 0.00 46 1014.0
20260508233555 60 215 1.7 3.5 0.00 0.00 0.00 44 1013.7
20260508233052 62 231 0.9 5.2 0.00 0.00 0.00 41 1013.7
20260508232549 62 179 1.7 5.2 0.00 0.00 0.00 38 1013.5
20260508232046 62 244 2.6 2.6 0.00 0.00 0.00 39 1013.7
20260508231543 64 229 2.6 3.5 0.00 0.00 0.00 40 1013.6
20260508231040 67 228 2.6 5.2 0.00 0.00 0.00 35 1013.6
20260508230537 67 279 1.7 3.5 0.00 0.00 0.00 35 1013.6
20260508230033 67 248 1.7 3.5 0.00 0.00 0.00 35 1013.8
20260508225531 67 176 2.6 5.2 0.00 0.00 0.00 33 1013.8
20260508225027 67 231 1.7 2.6 0.00 0.00 0.00 32 1013.7
20260508224525 67 263 2.6 7.0 0.00 0.00 0.00 35 1014.0
20260508224022 67 186 4.3 8.7 0.00 0.00 0.00 33 1013.8
20260508223520 68 230 3.5 8.7 0.00 0.00 0.00 33 1013.8
20260508223017 68 175 1.7 3.5 0.00 0.00 0.00 35 1013.6
20260508222515 68 259 3.5 5.2 0.00 0.00 0.00 31 1013.6
20260508222012 68 158 3.5 6.1 0.00 0.00 0.00 31 1013.8
20260508221508 68 256 1.7 5.2 0.00 0.00 0.00 35 1013.7
20260508221004 65 259 2.6 7.0 0.00 0.00 0.00 36 1013.7
20260508220500 67 214 5.2 13.0 0.00 0.00 0.00 32 1013.7
20260508215956 69 180 7.0 7.8 0.00 0.00 0.00 31 1013.7
20260508215453 68 174 3.5 5.2 0.00 0.00 0.00 31 1013.6
20260508214950 67 119 6.1 7.8 0.00 0.00 0.00 33 1013.6
20260508214448 68 214 4.3 8.7 0.00 0.00 0.00 33 1013.4
20260508213943 69 185 2.6 7.0 0.00 0.00 0.00 31 1013.4
20260508213441 69 182 4.3 7.8 0.00 0.00 0.00 34 1013.6
20260508212936 68 240 1.7 6.1 0.00 0.00 0.00 35 1013.6
20260508212434 69 222 4.3 7.0 0.00 0.00 0.00 32 1013.8
20260508211929 69 170 1.7 2.6 0.00 0.00 0.00 31 1013.8
20260508211425 68 224 2.6 6.1 0.00 0.00 0.00 35 1013.8
20260508210923 69 225 5.2 7.0 0.00 0.00 0.00 34 1014.1
20260508210419 69 262 0.9 3.5 0.00 0.00 0.00 32 1014.0
20260508205915 69 193 4.3 8.7 0.00 0.00 0.00 37 1014.0
20260508205413 69 202 2.6 8.7 0.00 0.00 0.00 38 1014.1
20260508204909 67 125 2.6 6.1 0.00 0.00 0.00 33 1014.1
20260508204406 67 250 2.6 3.5 0.00 0.00 0.00 34 1014.1
20260508203901 66 271 3.5 7.8 0.00 0.00 0.00 32 1014.4
20260508203358 66 236 4.3 9.6 0.00 0.00 0.00 35 1014.2
20260508202853 68 296 1.7 3.5 0.00 0.00 0.00 35 1014.3
20260508202351 68 223 3.5 7.8 0.00 0.00 0.00 36 1014.4
20260508201848 67 185 3.5 9.6 0.00 0.00 0.00 35 1014.3
20260508201345 66 318 3.5 8.7 0.00 0.00 0.00 34 1014.4
20260508200841 66 61 0.0 7.0 0.00 0.00 0.00 36 1014.5
20260508200338 67 47 0.9 6.1 0.00 0.00 0.00 33 1014.6
20260508195834 68 227 7.8 11.3 0.00 0.00 0.00 33 1014.7
20260508195331 67 170 7.0 8.7 0.00 0.00 0.00 34 1014.8
20260508194827 67 256 3.5 11.3 0.00 0.00 0.00 38 1015.1
20260508194325 67 252 3.5 6.1 0.00 0.00 0.00 30 1015.0
20260508193822 68 263 1.7 8.7 0.00 0.00 0.00 36 1014.8
20260508193319 67 238 6.1 14.8 0.00 0.00 0.00 36 1015.2
20260508192815 66 160 7.0 7.8 0.00 0.00 0.00 35 1015.1
20260508192312 67 186 8.7 13.9 0.00 0.00 0.00 35 1015.0
20260508191809 67 169 5.2 7.0 0.00 0.00 0.00 35 1015.2
20260508191306 65 151 4.3 12.2 0.00 0.00 0.00 35 1015.2
20260508190803 66 197 2.6 9.6 0.00 0.00 0.00 32 1015.2
20260508190259 67 233 4.3 8.7 0.00 0.00 0.00 37 1015.3
20260508185755 66 315 3.5 6.1 0.00 0.00 0.00 34 1015.3
20260508185253 67 255 9.6 9.6 0.00 0.00 0.00 33 1015.4
20260508184750 67 310 2.6 7.0 0.00 0.00 0.00 37 1015.6
20260508184247 66 83 6.1 9.6 0.00 0.00 0.00 34 1015.3
20260508183744 67 134 7.8 9.6 0.00 0.00 0.00 35 1015.4
20260508183240 66 236 3.5 7.8 0.00 0.00 0.00 37 1015.7
20260508182736 66 197 3.5 12.2 0.00 0.00 0.00 37 1015.9
20260508182233 65 187 3.5 8.7 0.00 0.00 0.00 37 1015.8
20260508181729 65 210 7.0 12.2 0.00 0.00 0.00 34 1015.9
20260508181226 65 228 3.5 7.8 0.00 0.00 0.00 37 1015.9
20260508180723 64 205 1.7 3.5 0.00 0.00 0.00 37 1016.1
20260508180220 64 207 5.2 11.3 0.00 0.00 0.00 34 1016.2
20260508175716 65 200 5.2 18.2 0.00 0.00 0.00 36 1016.1
20260508175213 65 262 3.5 9.6 0.00 0.00 0.00 33 1016.3
20260508174711 63 250 1.7 11.3 0.00 0.00 0.00 39 1016.3
20260508174208 64 261 5.2 9.6 0.00 0.00 0.00 35 1016.5
20260508173704 64 225 3.5 5.2 0.00 0.00 0.00 34 1016.5
20260508173200 64 226 5.2 13.0 0.00 0.00 0.00 37 1016.5
20260508172658 64 242 5.2 8.7 0.00 0.00 0.00 36 1016.7
20260508172154 64 156 4.3 12.2 0.00 0.00 0.00 38 1016.8
20260508171650 62 91 1.7 5.2 0.00 0.00 0.00 34 1016.9
20260508171147 63 71 3.5 5.2 0.00 0.00 0.00 37 1017.0
20260508170644 63 259 1.7 8.7 0.00 0.00 0.00 32 1017.2
20260508170142 63 208 7.0 9.6 0.00 0.00 0.00 36 1017.4
20260508165639 62 175 3.5 6.1 0.00 0.00 0.00 41 1017.0
20260508165136 62 246 1.7 3.5 0.00 0.00 0.00 34 1017.3
20260508164632 62 201 5.2 11.3 0.00 0.00 0.00 36 1017.4
20260508164129 62 192 6.1 11.3 0.00 0.00 0.00 36 1017.4
20260508163626 61 300 2.6 6.1 0.00 0.00 0.00 36 1017.6
20260508163124 61 120 3.5 3.5 0.00 0.00 0.00 44 1017.8
20260508162619 62 279 5.2 6.1 0.00 0.00 0.00 35 1017.8
20260508162117 61 138 5.2 8.7 0.00 0.00 0.00 36 1017.4
20260508161614 60 115 4.3 8.7 0.00 0.00 0.00 35 1017.6
20260508161111 62 217 3.5 11.3 0.00 0.00 0.00 39 1017.7
20260508160610 61 197 3.5 6.1 0.00 0.00 0.00 40 1017.7
20260508160107 60 270 3.5 5.2 0.00 0.00 0.00 38 1017.6
20260508155604 61 262 5.2 7.0 0.00 0.00 0.00 39 1017.8
20260508155100 59 174 1.7 3.5 0.00 0.00 0.00 40 1017.9
20260508154557 60 85 2.6 12.2 0.00 0.00 0.00 37 1017.8
20260508154054 59 144 6.1 13.0 0.00 0.00 0.00 38 1018.1
20260508153551 60 190 0.9 6.1 0.00 0.00 0.00 37 1017.8
20260508153047 59 197 6.1 7.8 0.00 0.00 0.00 40 1017.9
20260508152545 58 233 7.8 13.9 0.00 0.00 0.00 44 1018.0
20260508152040 58 198 7.0 13.0 0.00 0.00 0.00 39 1017.6
20260508151537 58 210 4.3 8.7 0.00 0.00 0.00 40 1017.7
20260508151034 57 277 0.0 2.6 0.00 0.00 0.00 41 1017.8
20260508150531 58 201 1.7 5.2 0.00 0.00 0.00 42 1018.2
20260508150026 59 281 4.3 12.2 0.00 0.00 0.00 40 1018.2
20260508145523 58 242 5.2 11.3 0.00 0.00 0.00 41 1018.3
20260508145019 57 119 5.2 6.1 0.00 0.00 0.00 42 1018.2
20260508144517 58 295 0.0 9.6 0.00 0.00 0.00 42 1018.2
20260508144015 56 308 5.2 9.6 0.00 0.00 0.00 44 1018.2
20260508143513 56 114 3.5 7.0 0.00 0.00 0.00 44 1018.2
20260508143009 58 233 6.1 7.0 0.00 0.00 0.00 44 1018.2
20260508142506 58 210 5.2 8.7 0.00 0.00 0.00 46 1018.0
20260508142002 57 104 2.6 7.0 0.00 0.00 0.00 45 1018.1
20260508141459 56 148 1.7 7.0 0.00 0.00 0.00 51 1017.9
20260508140957 55 171 0.0 7.8 0.00 0.00 0.00 44 1018.2
20260508140454 57 253 1.7 3.5 0.00 0.00 0.00 43 1018.0
20260508135949 56 79 2.6 11.3 0.00 0.00 0.00 44 1018.1
20260508135446 56 230 1.7 2.6 0.00 0.00 0.00 46 1018.0
20260508134942 55 172 5.2 7.8 0.00 0.00 0.00 44 1017.9
20260508134439 55 228 2.6 5.2 0.00 0.00 0.00 46 1018.2
20260508133935 53 198 4.3 7.0 0.00 0.00 0.00 44 1018.3
20260508133433 53 258 1.7 3.5 0.00 0.00 0.00 47 1018.2
20260508132930 53 155 2.6 3.5 0.00 0.00 0.00 50 1018.5
20260508132428 51 314 1.7 5.2 0.00 0.00 0.00 46 1018.3
20260508131924 49 333 0.9 1.7 0.00 0.00 0.00 60 1018.3
20260508131420 48 257 0.9 0.9 0.00 0.00 0.00 65 1018.3
20260508130917 46 24 0.0 1.7 0.00 0.00 0.00 71 1018.2
20260508130414 45 93 1.7 1.7 0.00 0.00 0.00 74 1018.6
20260508125909 43 81 1.7 1.7 0.00 0.00 0.00 75 1018.6
20260508125400 42 76 1.7 2.6 0.00 0.00 0.00 75 1018.6
20260508124858 43 28 0.0 0.0 0.00 0.00 0.00 76 1018.5
20260508124356 42 227 1.7 3.5 0.00 0.00 0.00 77 1018.5
20260508123854 41 54 0.9 1.7 0.00 0.00 0.00 77 1018.6
20260508123352 41 52 0.0 0.9 0.00 0.00 0.00 79 1018.6
20260508122848 40 89 0.9 0.9 0.00 0.00 0.00 78 1018.5
20260508122344 40 264 1.7 6.1 0.00 0.00 0.00 80 1018.6
20260508121842 39 174 0.9 3.5 0.00 0.00 0.00 82 1018.6
20260508121340 39 207 1.7 3.5 0.00 0.00 0.00 81 1018.7
20260508120837 38 224 3.5 3.5 0.00 0.00 0.00 81 1018.8
20260508120335 38 249 1.7 3.5 0.00 0.00 0.00 82 1018.5
20260508115832 38 200 1.7 1.7 0.00 0.00 0.00 84 1018.8
20260508115330 37 59 0.0 0.0 0.00 0.00 0.00 85 1018.6
20260508114826 37 288 0.0 1.7 0.00 0.00 0.00 87 1018.7
20260508114323 37 308 0.0 0.0 0.00 0.00 0.00 85 1018.7
20260508113820 37 71 0.9 1.7 0.00 0.00 0.00 86 1018.7
20260508113318 37 310 0.9 0.9 0.00 0.00 0.00 86 1018.5
20260508112814 36 68 0.9 0.9 0.00 0.00 0.00 87 1018.7
20260508112312 35 52 1.7 1.7 0.00 0.00 0.00 87 1018.5
20260508111808 35 49 0.9 0.9 0.00 0.00 0.00 89 1018.3
20260508111305 35 150 0.0 0.0 0.00 0.00 0.00 87 1018.6
20260508110802 35 283 0.9 2.6 0.00 0.00 0.00 86 1018.6
20260508110259 35 231 2.6 2.6 0.00 0.00 0.00 87 1018.6
20260508105759 35 239 1.7 2.6 0.00 0.00 0.00 86 1018.5
20260508105256 35 226 1.7 2.6 0.00 0.00 0.00 86 1018.1
20260508104753 35 190 0.0 5.2 0.00 0.00 0.00 86 1018.1
20260508104250 34 174 0.9 1.7 0.00 0.00 0.00 89 1018.1
20260508103747 34 144 0.0 0.9 0.00 0.00 0.00 90 1017.9
20260508103244 34 34 0.0 0.9 0.00 0.00 0.00 90 1018.0
20260508102741 34 248 0.0 0.0 0.00 0.00 0.00 89 1018.1
20260508102239 34 58 0.9 1.7 0.00 0.00 0.00 89 1017.9
20260508101736 34 224 0.0 0.9 0.00 0.00 0.00 88 1017.8
20260508101234 34 185 0.0 1.7 0.00 0.00 0.00 88 1017.7
20260508100731 34 177 1.7 3.5 0.00 0.00 0.00 89 1017.6
20260508100229 34 165 0.0 0.0 0.00 0.00 0.00 89 1017.8
20260508095725 34 331 0.9 0.9 0.00 0.00 0.00 89 1017.7
20260508095223 34 207 0.0 0.9 0.00 0.00 0.00 88 1017.7
20260508094719 35 213 0.0 0.9 0.00 0.00 0.00 88 1017.7
20260508094216 34 232 1.7 1.7 0.00 0.00 0.00 90 1017.8
20260508093713 33 103 0.0 0.9 0.00 0.00 0.00 91 1017.6
20260508093211 33 160 0.0 0.0 0.00 0.00 0.00 91 1017.8
20260508092708 33 93 1.7 1.7 0.00 0.00 0.00 91 1017.7
20260508092206 33 278 0.0 0.9 0.00 0.00 0.00 91 1017.9
20260508091703 33 222 0.0 0.0 0.00 0.00 0.00 90 1018.0
20260508091200 34 220 0.0 0.0 0.00 0.00 0.00 89 1017.8
20260508090658 34 275 0.0 0.9 0.00 0.00 0.00 89 1017.8
20260508090155 33 156 0.9 0.9 0.00 0.00 0.00 91 1017.8
20260508085650 34 85 0.0 0.9 0.00 0.00 0.00 90 1017.6
20260508085149 34 74 0.0 0.9 0.00 0.00 0.00 89 1017.8
20260508084640 34 125 0.0 0.0 0.00 0.00 0.00 88 1017.6
20260508084137 35 133 0.0 0.0 0.00 0.00 0.00 88 1017.5
20260508083634 35 109 1.7 1.7 0.00 0.00 0.00 88 1017.6
20260508083132 34 147 0.0 0.9 0.00 0.00 0.00 89 1017.4
20260508082626 34 133 0.0 0.9 0.00 0.00 0.00 89 1017.4
20260508082124 34 155 0.0 0.9 0.00 0.00 0.00 89 1017.5
20260508081622 34 196 0.0 0.0 0.00 0.00 0.00 89 1017.3
20260508081118 35 215 0.0 1.7 0.00 0.00 0.00 88 1017.4
20260508080615 35 107 0.0 0.9 0.00 0.00 0.00 87 1017.4
20260508080114 35 226 0.0 0.0 0.00 0.00 0.00 87 1017.2
20260508075609 35 145 0.0 0.9 0.00 0.00 0.00 88 1017.3
20260508075107 35 169 0.0 0.9 0.00 0.00 0.00 87 1017.1
20260508074604 35 205 0.0 0.0 0.00 0.00 0.00 87 1017.2
20260508074101 36 93 0.9 0.9 0.00 0.00 0.00 86 1017.3
20260508073559 36 249 1.7 1.7 0.00 0.00 0.00 86 1017.2
20260508073056 35 192 0.9 1.7 0.00 0.00 0.00 87 1017.2
20260508072551 36 84 0.9 0.9 0.00 0.00 0.00 86 1017.1
20260508072049 36 74 0.9 1.7 0.00 0.00 0.00 85 1017.3
20260508071547 37 87 0.0 0.9 0.00 0.00 0.00 84 1017.3
20260508071044 36 192 0.0 0.9 0.00 0.00 0.00 85 1017.3
20260508070542 37 59 1.7 1.7 0.00 0.00 0.00 84 1017.2
20260508070040 37 136 0.0 0.9 0.00 0.00 0.00 83 1017.1
20260508065537 37 121 0.0 0.0 0.00 0.00 0.00 85 1017.3
20260508065035 37 144 0.0 0.0 0.00 0.00 0.00 84 1017.2
20260508064532 37 286 0.0 0.0 0.00 0.00 0.00 82 1017.3
20260508064030 37 197 0.0 1.7 0.00 0.00 0.00 82 1017.1
20260508063527 38 233 0.9 1.7 0.00 0.00 0.00 81 1017.1
20260508063026 38 184 0.9 1.7 0.00 0.00 0.00 81 1017.1
20260508062523 38 104 0.9 1.7 0.00 0.00 0.00 79 1016.9
20260508062019 38 272 0.0 0.9 0.00 0.00 0.00 80 1017.1
20260508061517 39 86 0.9 0.9 0.00 0.00 0.00 79 1017.0
20260508061013 39 213 0.0 0.0 0.00 0.00 0.00 80 1016.8
20260508060510 39 287 0.9 1.7 0.00 0.00 0.00 78 1016.9
20260508060008 40 58 0.9 1.7 0.00 0.00 0.00 75 1016.8
20260508055503 40 284 0.0 2.6 0.00 0.00 0.00 77 1016.8
20260508054959 39 180 0.0 1.7 0.00 0.00 0.00 78 1016.8
20260508054456 40 64 2.6 3.5 0.00 0.00 0.00 77 1016.9
20260508053953 41 115 1.7 1.7 0.00 0.00 0.00 72 1017.1
20260508053450 41 158 1.7 1.7 0.00 0.00 0.00 75 1017.1
20260508052948 40 270 0.9 2.6 0.00 0.00 0.00 75 1017.1
20260508052446 42 258 2.6 2.6 0.00 0.00 0.00 73 1017.0
20260508051942 41 199 1.7 2.6 0.00 0.00 0.00 75 1017.0
20260508051437 41 160 0.0 0.0 0.00 0.00 0.00 74 1017.1
20260508050934 42 75 0.0 2.6 0.00 0.00 0.00 71 1017.3
20260508050431 43 238 0.0 2.6 0.00 0.00 0.00 72 1017.2
20260508045926 42 101 0.0 3.5 0.00 0.00 0.00 72 1017.1
20260508045424 44 258 2.6 3.5 0.00 0.00 0.00 71 1017.0
20260508044922 41 107 3.5 3.5 0.00 0.00 0.00 76 1017.0
20260508044419 42 126 1.7 1.7 0.00 0.00 0.00 69 1017.0
20260508043914 42 84 1.7 3.5 0.00 0.00 0.00 71 1016.9
20260508043412 42 63 0.0 0.9 0.00 0.00 0.00 73 1016.8
20260508042908 42 98 1.7 3.5 0.00 0.00 0.00 64 1016.7
20260508042407 42 81 0.0 1.7 0.00 0.00 0.00 70 1016.8
20260508041903 44 103 0.0 1.7 0.00 0.00 0.00 66 1016.5
20260508041359 45 197 0.9 1.7 0.00 0.00 0.00 68 1016.5
20260508040855 45 51 1.7 2.6 0.00 0.00 0.00 68 1016.2
20260508040353 45 206 0.0 2.6 0.00 0.00 0.00 61 1016.3
20260508035850 48 267 2.6 3.5 0.00 0.00 0.00 57 1016.3
20260508035347 46 72 1.7 1.7 0.00 0.00 0.00 58 1016.1
20260508034844 50 233 1.7 2.6 0.00 0.00 0.00 54 1016.3
20260508034342 49 86 0.0 0.9 0.00 0.00 0.00 50 1016.2
20260508033838 49 151 1.7 2.6 0.00 0.00 0.00 51 1016.2
20260508033336 49 122 1.7 6.1 0.00 0.00 0.00 50 1015.9
20260508032833 49 54 2.6 2.6 0.00 0.00 0.00 50 1016.0
20260508032331 50 254 1.7 3.5 0.00 0.00 0.00 48 1015.9
20260508031828 48 81 2.6 2.6 0.00 0.00 0.00 55 1015.9
20260508031324 48 338 1.7 2.6 0.00 0.00 0.00 52 1016.1
20260508030820 47 78 3.5 5.2 0.00 0.00 0.00 53 1015.8
20260508030318 46 153 0.0 0.0 0.00 0.00 0.00 67 1015.8
20260508025814 46 109 0.9 1.7 0.00 0.00 0.00 65 1015.8
20260508025312 48 50 1.7 1.7 0.00 0.00 0.00 64 1015.7
20260508024808 46 199 2.6 7.0 0.00 0.00 0.00 52 1015.5
20260508024304 47 103 0.0 1.7 0.00 0.00 0.00 59 1015.4
20260508023801 49 113 0.9 0.9 0.00 0.00 0.00 59 1015.6
20260508023258 51 252 0.0 0.9 0.00 0.00 0.00 54 1015.3
20260508022754 49 133 1.7 7.8 0.00 0.00 0.00 49 1015.4
20260508022251 49 83 1.7 2.6 0.00 0.00 0.00 55 1015.4
20260508021748 49 141 0.0 0.9 0.00 0.00 0.00 59 1015.3
20260508021243 50 174 2.6 5.2 0.00 0.00 0.00 55 1015.3
20260508020740 50 188 0.9 7.0 0.00 0.00 0.00 54 1015.1
20260508020238 51 119 0.0 0.9 0.00 0.00 0.00 52 1015.3
20260508015735 51 164 5.2 6.1 0.00 0.00 0.00 50 1015.0
20260508015232 52 232 0.9 1.7 0.00 0.00 0.00 52 1015.2
20260508014729 51 63 0.9 0.9 0.00 0.00 0.00 55 1015.1
20260508014226 51 166 1.7 2.6 0.00 0.00 0.00 52 1015.1
20260508013721 53 196 0.9 2.6 0.00 0.00 0.00 53 1014.8
20260508013218 50 86 10.4 12.2 0.00 0.00 0.00 51 1014.8
20260508012716 51 91 1.7 1.7 0.00 0.00 0.00 58 1014.7
20260508012212 53 267 1.7 3.5 0.00 0.00 0.00 49 1014.5
20260508011711 52 205 0.0 5.2 0.00 0.00 0.00 54 1014.5
20260508011208 52 249 0.0 2.6 0.00 0.00 0.00 54 1014.4
20260508010704 53 105 2.6 5.2 0.00 0.00 0.00 52 1014.3
20260508010202 53 166 1.7 2.6 0.00 0.00 0.00 52 1014.3
20260508005659 51 150 0.0 0.9 0.00 0.00 0.00 54 1014.3
20260508005156 51 95 0.9 1.7 0.00 0.00 0.00 53 1014.1
20260508004651 53 245 0.9 2.6 0.00 0.00 0.00 51 1014.1